When you browse on this site, cookies collect data to enhance your experience and personalize the content and advertising you see.
Visit our Privacy Policy to learn more. By continuing to use the site, you agree to this use of cookies and data.
  • In Hungary
  • List of Countries
  • For 7 days
  • Water Temperature
  • Satellite Maps
  • Weather Map
  • News
  • Weather Widgets
  • user-avatar
    Login

    Hourly Weather Barra

    Today, 22 January, Tuesday

    Time Temperature Precipitation Wind Pressure Humidity
    00:00 +25°C° 0 mm 5 mps 761 mmHg 13%
    01:00 +23°C° 0 mm 5 mps 761 mmHg 13%
    02:00 +22°C° 0 mm 5 mps 760 mmHg 12%
    03:00 +22°C° 0 mm 5 mps 760 mmHg 12%
    04:00 +22°C° 0 mm 6 mps 760 mmHg 12%
    05:00 +21°C° 0 mm 6 mps 760 mmHg 12%
    06:00 +21°C° 0 mm 6 mps 761 mmHg 12%
    07:00 +22°C° 0 mm 6 mps 761 mmHg 12%
    08:00 +22°C° 0 mm 7 mps 761 mmHg 12%
    09:00 +26°C° 0 mm 6 mps 761 mmHg 11%
    10:00 +28°C° 0 mm 6 mps 761 mmHg 10%
    11:00 +32°C° 0 mm 6 mps 761 mmHg 9%
    12:00 +33°C° 0 mm 5 mps 760 mmHg 9%
    13:00 +34°C° 0 mm 5 mps 760 mmHg 9%
    14:00 +35°C° 0 mm 4 mps 759 mmHg 8%
    15:00 +35°C° 0 mm 4 mps 759 mmHg 9%
    16:00 +35°C° 0 mm 4 mps 758 mmHg 10%
    17:00 +34°C° 0 mm 4 mps 758 mmHg 11%
    18:00 +32°C° 0 mm 4 mps 759 mmHg 15%
    19:00 +29°C° 0 mm 3 mps 759 mmHg 19%
    20:00 +27°C° 0 mm 3 mps 760 mmHg 23%
    21:00 +27°C° 0 mm 3 mps 760 mmHg 19%
    22:00 +27°C° 0 mm 4 mps 760 mmHg 16%
    23:00 +26°C° 0 mm 4 mps 760 mmHg 13%

    Tomorrow, 23 January, Wednesday

    Time Temperature Precipitation Wind Pressure Humidity
    00:00 +26°C° 0 mm 4 mps 760 mmHg 14%
    01:00 +25°C° 0 mm 4 mps 760 mmHg 16%
    02:00 +23°C° 0 mm 5 mps 760 mmHg 17%
    03:00 +23°C° 0 mm 5 mps 759 mmHg 18%
    04:00 +23°C° 0 mm 5 mps 759 mmHg 20%
    05:00 +22°C° 0 mm 5 mps 759 mmHg 21%
    06:00 +23°C° 0 mm 6 mps 760 mmHg 22%
    07:00 +23°C° 0 mm 6 mps 760 mmHg 24%
    08:00 +23°C° 0 mm 6 mps 760 mmHg 25%
    09:00 +27°C° 0 mm 6 mps 760 mmHg 22%
    10:00 +29°C° 0 mm 6 mps 760 mmHg 19%
    11:00 +32°C° 0 mm 5 mps 760 mmHg 16%
    12:00 +34°C° 0 mm 5 mps 760 mmHg 15%
    13:00 +35°C° 0 mm 4 mps 759 mmHg 14%
    14:00 +36°C° 0 mm 4 mps 758 mmHg 12%
    15:00 +35°C° 0 mm 4 mps 758 mmHg 14%
    16:00 +35°C° 0 mm 5 mps 758 mmHg 15%
    17:00 +34°C° 0 mm 5 mps 758 mmHg 16%
    18:00 +32°C° 0 mm 5 mps 758 mmHg 25%
    19:00 +29°C° 0 mm 5 mps 759 mmHg 34%
    20:00 +27°C° 0 mm 6 mps 759 mmHg 42%
    21:00 +27°C° 0 mm 5 mps 759 mmHg 39%
    22:00 +26°C° 0 mm 5 mps 759 mmHg 36%
    23:00 +26°C° 0 mm 5 mps 760 mmHg 34%

    Day after tomorrow, 24 January, Thursday

    Time Temperature Precipitation Wind Pressure Humidity
    00:00 +25°C° 0 mm 5 mps 759 mmHg 32%
    01:00 +25°C° 0 mm 5 mps 759 mmHg 30%
    02:00 +23°C° 0 mm 5 mps 758 mmHg 28%
    03:00 +23°C° 0 mm 5 mps 758 mmHg 27%
    04:00 +23°C° 0 mm 5 mps 758 mmHg 27%
    05:00 +23°C° 0 mm 5 mps 758 mmHg 26%
    06:00 +23°C° 0 mm 5 mps 759 mmHg 26%
    07:00 +23°C° 0 mm 5 mps 759 mmHg 26%
    08:00 +25°C° 0 mm 5 mps 759 mmHg 25%
    09:00 +27°C° 0 mm 5 mps 759 mmHg 22%
    10:00 +29°C° 0 mm 4 mps 759 mmHg 20%
    11:00 +33°C° 0 mm 4 mps 759 mmHg 17%
    12:00 +34°C° 0 mm 4 mps 759 mmHg 16%
    13:00 +35°C° 0 mm 4 mps 758 mmHg 15%
    14:00 +36°C° 0 mm 4 mps 757 mmHg 15%
    15:00 +35°C° 0 mm 4 mps 757 mmHg 19%
    16:00 +34°C° 0 mm 5 mps 757 mmHg 22%
    17:00 +33°C° 0 mm 5 mps 757 mmHg 26%
    18:00 +30°C° 0 mm 5 mps 757 mmHg 32%
    19:00 +29°C° 0 mm 5 mps 758 mmHg 38%
    20:00 +27°C° 0 mm 5 mps 758 mmHg 43%
    21:00 +27°C° 0 mm 5 mps 759 mmHg 43%
    22:00 +26°C° 0 mm 5 mps 759 mmHg 42%
    23:00 +25°C° 0 mm 5 mps 759 mmHg 41%

    25 January, Friday

    Time Temperature Precipitation Wind Pressure Humidity
    00:00 +25°C° 0 mm 5 mps 759 mmHg 41%
    01:00 +23°C° 0 mm 4 mps 758 mmHg 41%
    02:00 +23°C° 0 mm 4 mps 758 mmHg 41%
    03:00 +22°C° 0 mm 4 mps 758 mmHg 41%
    04:00 +22°C° 0 mm 4 mps 758 mmHg 41%
    05:00 +22°C° 0 mm 4 mps 758 mmHg 41%
    06:00 +22°C° 0 mm 4 mps 759 mmHg 40%
    07:00 +23°C° 0 mm 4 mps 759 mmHg 39%
    08:00 +23°C° 0 mm 5 mps 760 mmHg 38%
    09:00 +26°C° 0 mm 4 mps 760 mmHg 33%
    10:00 +29°C° 0 mm 4 mps 760 mmHg 28%
    11:00 +32°C° 0 mm 4 mps 760 mmHg 23%
    12:00 +33°C° 0 mm 4 mps 759 mmHg 22%
    13:00 +34°C° 0 mm 4 mps 758 mmHg 21%
    14:00 +35°C° 0 mm 4 mps 757 mmHg 20%
    15:00 +34°C° 0 mm 5 mps 757 mmHg 25%
    16:00 +33°C° 0 mm 5 mps 757 mmHg 30%
    17:00 +30°C° 0 mm 6 mps 757 mmHg 35%
    18:00 +29°C° 0 mm 6 mps 758 mmHg 40%
    19:00 +28°C° 0 mm 6 mps 759 mmHg 45%
    20:00 +27°C° 0 mm 5 mps 759 mmHg 50%
    21:00 +26°C° 0 mm 5 mps 759 mmHg 48%
    22:00 +25°C° 0 mm 5 mps 760 mmHg 46%
    23:00 +25°C° 0 mm 5 mps 760 mmHg 45%

    26 January, Saturday

    Time Temperature Precipitation Wind Pressure Humidity
    00:00 +23°C° 0 mm 5 mps 759 mmHg 44%
    01:00 +23°C° 0 mm 5 mps 759 mmHg 43%
    02:00 +22°C° 0 mm 4 mps 759 mmHg 42%
    03:00 +22°C° 0 mm 5 mps 759 mmHg 42%
    04:00 +22°C° 0 mm 5 mps 759 mmHg 42%
    05:00 +21°C° 0 mm 5 mps 759 mmHg 43%
    06:00 +22°C° 0 mm 5 mps 760 mmHg 40%
    07:00 +22°C° 0 mm 5 mps 760 mmHg 38%
    08:00 +23°C° 0 mm 5 mps 761 mmHg 35%
    09:00 +26°C° 0 mm 5 mps 761 mmHg 29%
    10:00 +29°C° 0 mm 5 mps 761 mmHg 23%
    11:00 +32°C° 0 mm 4 mps 761 mmHg 17%
    12:00 +33°C° 0 mm 4 mps 760 mmHg 16%
    13:00 +35°C° 0 mm 3 mps 759 mmHg 15%
    14:00 +36°C° 0 mm 3 mps 758 mmHg 14%
    15:00 +35°C° 0 mm 4 mps 758 mmHg 17%
    16:00 +34°C° 0 mm 5 mps 758 mmHg 21%
    17:00 +33°C° 0 mm 6 mps 758 mmHg 25%
    18:00 +30°C° 0 mm 6 mps 758 mmHg 31%
    19:00 +29°C° 0 mm 6 mps 759 mmHg 37%
    20:00 +27°C° 0 mm 6 mps 759 mmHg 43%
    21:00 +27°C° 0 mm 6 mps 760 mmHg 38%
    22:00 +27°C° 0 mm 6 mps 760 mmHg 33%
    23:00 +26°C° 0 mm 6 mps 760 mmHg 28%

    27 January, Sunday

    Time Temperature Precipitation Wind Pressure Humidity
    00:00 +26°C° 0 mm 6 mps 760 mmHg 26%
    01:00 +27°C° 0 mm 6 mps 759 mmHg 23%
    02:00 +27°C° 0 mm 5 mps 759 mmHg 21%
    03:00 +26°C° 0 mm 5 mps 759 mmHg 19%
    04:00 +25°C° 0 mm 5 mps 759 mmHg 18%
    05:00 +23°C° 0 mm 5 mps 759 mmHg 17%
    06:00 +25°C° 0 mm 5 mps 759 mmHg 17%
    07:00 +24°C° 0 mm 6 mps 760 mmHg 16%
    08:00 +24°C° 0 mm 6 mps 760 mmHg 16%
    09:00 +28°C° 0 mm 6 mps 760 mmHg 14%
    10:00 +30°C° 0 mm 6 mps 760 mmHg 12%
    11:00 +33°C° 0 mm 6 mps 760 mmHg 11%
    12:00 +35°C° 0 mm 5 mps 759 mmHg 10%
    13:00 +36°C° 0 mm 5 mps 758 mmHg 9%
    14:00 +37°C° 0 mm 4 mps 758 mmHg 8%
    15:00 +36°C° 0 mm 4 mps 757 mmHg 9%
    16:00 +36°C° 0 mm 4 mps 757 mmHg 10%
    17:00 +36°C° 0 mm 4 mps 757 mmHg 10%
    18:00 +34°C° 0 mm 4 mps 758 mmHg 14%
    19:00 +32°C° 0 mm 4 mps 758 mmHg 17%
    20:00 +30°C° 0 mm 4 mps 759 mmHg 20%
    21:00 +29°C° 0 mm 5 mps 759 mmHg 20%
    22:00 +29°C° 0 mm 5 mps 759 mmHg 20%
    23:00 +28°C° 0 mm 6 mps 759 mmHg 19%
    Show more